STARLINK-11229, 60908

Orbit data source: Space-Track

STARLINK-11229, 60908 is a payload satellite owned by SpaceX/Seattle (US) in LEO that was launched on Sat, 31 Aug 2024 UTC via an FALCON 9 launch vehicle from the Air Force Eastern Test Range (AFETR). Payload-class satellites include a variety of spacecraft equipped with specific instruments for various scientific and technological missions. These include communications satellites like Starlink; space stations such as the ISS; scientific satellites like the Hubble; Earth observation satellites from companies like Planet Labs, Umbra, and HawkEye 360; GPS; miniature CubeSats for education and research; and military/defense satellites.

Loading next visibility...
Identifier
60908, 2024-154F
Orbit
LEO
Country
Flag of USUS
Related business
Manufacturer
SpaceX/Seattle
Mission
Operational Commercial Communications
Bus & Motor
STARLINK V2MD, Unknown motor
Mass
960 kg wet, ~910 kg dry
Launch date (UTC)
2024-08-31 (2 years ago)
Launch vehicle
FALCON 9
Launch site
Air Force Eastern Test Range (AFETR)
Object type
Payload
Rocket body
Debris
Shape & HBR
Box + 2 Pan, 18.1 m
Radar Cross Section
36.964 m², Large (>1 m²)

Expand to show TLE details & history
Last TLE update: 1 day ago

TLE from 1 day ago
0 STARLINK-11229
1 60908U 24154F   26175.15212293  .00000499  00000-0  89782-5 0  9996
2 60908  53.1601 326.5808 0001083  92.8847 267.2294 15.69710685105234
Epoch: 2026-06-24T03:39Z
TLE epoch observation values (Epoch: 2026-06-24T03:39:03.421Z)
Latitude
-0.00008°
Longitude
-0.49695°
Altitude
360.675 km
Speed
7.694 km/s
True Right ascension
21h 46m 19s
True Declination
0° 00' 00"
Sunlit
Object was in full shadow at epoch
Visualization orbit readout
Latitude
Unknown
Longitude
Unknown
Altitude
Unknown
Speed
Unknown
Apparent Right ascension
Unknown
Apparent Declination
Unknown
Sunlit
N/A
Visualization observer readout
Local Sidereal Time
18:26:42
Azimuth
Unknown
Elevation
Unknown
Doppler factor
Unknown
Orbital elements
Apogee altitude
360.715 km
Perigee altitude
359.256 km
Semi-major axis
6,738.122 km
Eccentricity
0.00011
Inclination
53.1601°
RAAN
326.5808°
Arg. of periapsis
92.8847°
True anomaly
267.217°
Mean anomaly
267.2294°
Eccentric anomaly
267.2232°
Mean motion
3.92405 °/min
Orbital period
91.74 mins
BSTAR
0.0000089782
Loading maneuver chart data...
Computing Atmospheric mass density...
Loading historical data...
Loading historical data...
Loading historical data...
Loading historical data...
Loading historical data...
Loading historical data...
Loading historical data...

Documentation

Showing up to 5 results
|